Location: New Frontier Mobile Home Park
(32.8448°N, 116.9675°W)
Time: 23:03:21
(UTC+00:00)

Cosmos 2082 Rocket - Pass Details

Date: 14 July 2020
Orbit: 833 x 853 km, 71.0° (Epoch: 05 August)

Event Time Altitude Azimuth Distance (km) Brightness Sun altitude
Exits shadow 10:51:53 25° 276° (W) 1,652 3.4 -21.0°
Maximum altitude 10:53:10 27° 298° (WNW) 1,570 3.4 -20.8°
Drops below altitude 10° 10:57:59 10° 356° (N) 2,484 5.2 -20.1°
Sets 11:00:49 0° 8° (N) 3,421 6.2 -19.6°
